Regional Weather Roundup
Issued by NWS Goodland, KS

Home | Current Version | Previous Version | Graphics & Text | Print | Product List | Glossary On
Versions: 1 2 3 4 5 6 7 8 9 10 11 12 13 14 15 16 17 18 19 20 21 22 23 24 25 26 27 28 29 30 31 32 33 34 35 36 37 38 39 40 41 42 43 44 45 46 47 48 49 50
000
ASUS43 KGLD 130659
RWRGLD

GOODLAND FORECAST AREA HOURLY WEATHER ROUNDUP
NATIONAL WEATHER SERVICE GOODLAND KS
1200 AM MST SAT FEB 13 2016

...OFFICIAL OBSERVATIONS...

CITY           SKY/WX    TMP DP  RH WIND       PRES   REMARKS
GOODLAND KS    CLOUDY    28  26  92 S20       30.35F WCI  15
HILL CITY KS   CLOUDY    26  22  84 E10       30.48S WCI  16
IMPERIAL NEB   CLOUDY    29  27  92 S15       30.35F WCI  18
MCCOOK NEB     FOG       26  25  96 SE15      30.42F VSB 1/4 WCI  14
AKRON CO       CLOUDY    30  30 100 S20G25    30.24F FOG     WCI  17
BURLINGTON CO  CLOUDY    28  26  92 S20       30.31F FOG     WCI  15
LIMON CO       CLOUDY    28  28 100 S15G22    30.25F FOG     WCI  16
$$

...UNOFFICIAL OBSERVATIONS...

CITY           SKY/WX    TMP DP  RH WIND       PRES   REMARKS
COLBY KS       CLOUDY    28  28 100 SE15G21   30.41R WCI  17
GOVE KS          N/A     28  32 100 MISG        N/A
LENORA KS        N/A     25  32 100 MISG        N/A
NORTON KS      CLOUDY    25  16  68 E8        30.45
SHARON SPRINGS   N/A     27  25  91 SE14        N/A  WCI  16
KIT CARSON CO    N/A     28  25  89 MISG        N/A
YUMA CO          N/A     30  29  96 CALM        N/A
$$



USA.gov is the U.S. government's official web portal to all federal, state and local government web resources and services.